Wind_Speed
27 26 27 18 13 15 13 8 13 18 14 23 19 24 24 27 25 17 16 18 17 16 14 14 14 12 11 12 11 10 9 6 3 2 2 2 3 3 4 5 6 7 8 9 10 11 11 12 11
16 19 18 19 11 10 15 10 13 12 14 14 16 17 21 20 21 15 16 16 16 15 12 15 12 11 10 9 9 8 7 5 4 2 1 3 4 5 5 5 5 5 5 6 7 8 9 9 10
11 12 12 13 15 15 14 12 12 9 9 7 12 13 18 15 15 12 14 13 14 11 11 11 11 11 9 8 8 6 6 5 5 3 3 4 6 6 8 9 9 8 7 6 6 6 7 7 7
11 8 8 8 19 2 7 11 18 19 6 4 6 12 4 6 12 9 10 10 10 9 10 9 8 9 9 9 10 10 9 8 7 7 8 8 8 8 8 9 10 11 11 12 12 11 8 8 7
16 10 8 14 12 16 12 12 14 12 7 7 7 7 1 10 10 9 8 7 5 4 5 5 6 7 8 10 10 11 12 12 13 14 14 15 15 15 14 14 13 13 14 13 13 13 15 14 12
9 16 12 15 13 11 9 10 13 8 2 8 5 7 4 3 6 7 6 6 5 4 5 7 9 9 10 10 11 12 11 12 12 13 15 15 15 16 17 18 19 19 18 18 19 18 16 14 13
11 29 10 11 10 7 9 14 13 9 5 9 13 11 9 4 6 4 5 4 4 7 8 8 9 10 10 12 13 14 15 16 16 15 18 18 18 19 19 17 17 17 18 20 22 23 22 21 20
27 25 12 11 10 9 13 14 11 4 8 15 14 15 13 5 4 2 2 3 4 6 7 8 9 10 11 13 13 14 13 13 14 16 16 17 16 16 16 15 15 17 18 18 19 20 22 23 24
17 21 15 10 10 7 9 9 11 13 25 22 20 15 7 7 3 1 3 4 6 7 8 10 12 13 14 15 15 17 17 15 16 17 18 20 20 19 19 19 19 19 18 18 19 20 20 21 22
18 16 15 11 13 7 6 4 11 16 22 19 14 9 8 6 3 4 4 6 8 9 8 11 12 14 14 15 15 17 20 19 18 18 17 17 17 18 19 21 22 22 20 21 21 23 22 23 23
17 17 16 12 10 8 7 6 9 14 18 16 14 12 10 7 5 4 5 5 5 7 9 10 12 13 14 15 15 17 17 18 17 17 17 16 16 17 18 21 23 24 25 26 27 27 26 27 28
15 17 15 10 8 8 9 10 9 9 14 13 11 11 9 6 3 3 3 6 7 7 9 10 10 11 11 12 12 14 15 16 16 16 18 18 18 18 17 16 16 21 23 25 27 29 29 28 29
17 16 13 10 8 6 10 12 10 11 12 12 10 8 7 4 3 3 3 3 5 6 6 7 8 9 12 13 13 14 15 15 16 17 18 19 19 20 19 19 21 23 23 24 26 27 28 30 29
10 12 11 9 8 10 14 14 12 12 10 10 8 6 5 3 3 1 1 2 3 6 8 9 10 13 15 16 16 17 18 18 17 17 18 19 21 21 23 23 25 26 27 27 27 28 28 29 30
11 11 8 8 8 14 14 15 14 12 10 8 6 5 4 3 2 4 4 5 7 10 10 11 12 13 15 17 19 19 19 19 20 20 21 21 22 24 25 26 27 29 29 28 29 28 29 30 30
9 9 11 10 14 16 16 13 12 11 9 7 7 4 3 3 5 6 8 8 9 11 13 14 14 16 17 17 19 21 22 23 23 22 23 23 25 26 26 28 29 30 31 31 31 31 29 31 33
11 9 9 12 13 12 12 11 10 8 8 7 5 3 6 6 7 9 9 9 11 13 15 16 16 17 18 20 21 21 23 25 26 28 28 28 27 28 28 29 31 31 31 33 33 32 32 32 34
12 12 13 12 11 9 10 9 7 8 8 6 5 6 8 6 9 10 10 12 14 16 17 19 20 20 21 21 23 25 27 28 29 30 30 31 32 31 31 31 32 32 32 34 34 33 31 33 36
12 15 17 15 13 12 10 9 8 9 8 8 7 6 8 8 9 11 13 14 15 18 19 20 23 24 25 25 26 26 28 29 30 32 32 32 33 34 33 32 33 34 34 34 35 35 33 31 34
15 16 14 14 13 10 9 10 10 11 10 10 8 7 9 11 11 11 13 15 16 20 22 23 24 27 27 29 31 32 33 35 34 35 36 36 37 37 36 37 36 36 36 35 35 36 35 33 34
21 17 14 13 10 10 8 11 11 12 11 11 11 8 10 12 14 14 15 17 17 20 22 26 26 27 27 27 28 33 37 36 37 38 39 41 40 41 40 39 38 38 38 37 38 38 37 37 37
20 17 13 11 11 12 11 10 13 10 12 13 13 12 12 13 14 16 18 20 21 21 22 23 25 26 27 30 35 42 50 44 43 43 44 44 43 43 42 42 42 42 41 40 40 40 40 40 41
14 15 15 13 15 12 16 15 13 13 14 15 16 16 15 15 16 17 20 22 25 27 27 26 28 30 32 34 35 42 45 49 46 47 53 52 49 47 45 45 43 43 45 44 42 42 43 43 43
18 17 17 18 18 16 22 19 9 16 15 18 20 18 19 19 20 20 21 23 28 31 33 32 32 32 33 35 36 38 42 47 48 47 57 54 51 50 48 45 44 44 44 45 45 46 45 45 46
19 18 20 21 20 16 22 24 18 21 20 21 22 23 23 24 24 25 25 26 28 30 33 34 36 36 36 35 38 42 46 49 48 51 60 57 51 48 47 46 45 44 45 45 46 47 48 48 49
21 21 24 24 22 21 25 26 24 25 26 25 22 23 26 29 30 30 31 30 31 32 33 36 39 41 43 43 45 45 50 51 52 55 63 59 55 49 46 44 45 45 45 46 47 48 48 48 50
25 23 24 25 26 29 28 28 27 26 28 28 28 25 25 29 31 31 33 34 37 36 36 37 40 43 48 49 49 51 53 53 55 59 64 61 58 53 48 46 45 46 47 48 50 50 50 52 53
26 26 26 26 30 31 30 30 28 29 34 35 33 34 36 37 37 35 35 38 40 41 42 41 42 45 48 50 51 53 54 55 58 64 63 63 60 54 49 47 48 48 49 50 52 54 55 58 57
29 29 30 31 33 34 34 29 29 31 32 36 35 36 39 40 42 39 41 41 42 43 45 46 47 49 50 52 54 54 57 58 62 66 65 64 58 52 48 49 50 50 50 53 55 57 58 58 59
33 32 34 35 35 38 39 33 34 37 39 38 40 37 35 39 41 44 45 45 46 46 47 47 50 52 53 55 55 63 59 64 65 67 64 60 55 51 51 50 51 53 55 56 57 58 59 60 60
Wind_Direction
173 190 168 196 199 214 228 299 93 90 70 70 71 78 87 96 99 104 95 88 84 76 68 66 62 58 57 56 55 58 60 54 74 77 50 42 63 65 46 39 41 44 42 39 41 47 53 54 54
162 178 189 200 226 239 250 120 77 83 71 70 67 85 92 100 99 101 100 88 82 75 64 51 47 42 42 48 48 48 47 47 46 46 346 327 333 343 352 4 13 18 22 18 22 28 35 40 46
150 164 187 217 245 262 49 65 60 64 76 61 70 98 92 89 107 106 92 82 76 74 55 44 38 26 17 17 23 29 27 28 20 6 348 328 322 325 326 332 334 335 337 334 345 354 6 14 30
136 147 169 260 229 272 130 57 43 57 71 92 89 141 108 91 118 97 86 72 64 54 41 32 25 16 360 358 360 1 358 358 359 1 355 349 340 329 325 324 323 322 322 323 325 325 330 338 352
132 128 151 105 90 83 77 38 33 35 40 113 150 163 256 141 136 120 97 91 84 50 30 28 9 358 6 2 357 352 348 348 349 348 348 345 342 340 338 331 325 321 319 315 316 321 322 322 323
112 130 117 104 114 95 70 37 13 355 36 150 174 179 156 132 145 118 99 74 42 16 359 356 352 342 340 342 339 339 332 326 329 331 330 330 330 331 332 332 331 330 330 326 320 314 307 309 311
93 149 114 113 105 71 53 34 12 350 280 192 181 166 187 188 177 106 44 39 2 358 351 336 332 337 332 331 332 328 327 324 320 323 323 323 321 320 322 324 322 317 317 320 321 319 320 315 307
114 137 158 139 110 56 38 29 29 4 164 171 169 172 182 207 167 63 8 26 332 336 338 346 354 353 345 342 340 328 330 329 325 320 319 320 318 315 313 312 304 303 304 307 309 311 313 313 310
134 142 154 133 90 73 44 32 72 96 121 131 147 158 168 151 178 260 354 351 11 12 9 6 359 356 356 348 343 332 330 331 325 321 321 321 319 317 313 310 305 305 307 306 301 295 296 295 297
152 151 132 122 102 93 62 60 94 96 104 112 137 145 158 169 132 67 52 27 355 352 6 6 359 353 354 337 340 328 328 330 328 324 324 320 316 311 307 310 310 308 305 302 296 292 290 290 290
147 136 121 109 121 130 83 97 103 113 114 123 140 152 154 132 104 63 30 23 4 355 9 8 359 358 1 342 346 338 335 333 330 326 326 321 315 309 309 310 313 312 311 307 304 299 291 286 284
137 136 130 137 143 98 107 119 115 123 122 133 145 130 113 101 75 56 31 18 14 9 9 10 3 1 352 349 348 337 338 333 332 332 328 326 320 318 313 307 307 308 310 309 310 310 308 306 301
153 143 141 148 130 131 130 125 137 128 124 127 124 111 97 81 60 68 62 31 20 3 12 342 341 342 348 348 343 339 340 332 328 325 321 317 314 311 307 301 303 303 302 302 303 303 306 309 310
150 144 160 154 145 141 141 133 131 126 115 106 102 111 138 154 205 140 86 20 346 334 319 331 341 350 348 344 340 338 335 329 325 323 317 313 310 309 304 298 299 301 299 297 298 303 303 303 302
157 162 176 167 161 149 140 139 136 140 134 137 158 165 168 196 285 301 319 322 327 331 330 334 338 337 333 335 331 329 329 325 323 319 315 311 307 305 303 298 295 296 298 296 296 299 303 304 301
169 184 188 190 173 157 151 147 149 151 155 171 189 198 239 268 271 288 294 316 312 309 321 328 325 321 321 322 321 321 321 321 319 316 314 310 304 301 297 295 295 296 296 297 298 297 296 298 301
178 191 203 163 157 155 157 164 163 169 183 194 209 259 267 269 286 292 296 300 305 316 317 319 315 313 312 313 317 318 319 320 319 316 314 310 307 305 304 300 297 296 295 296 297 299 300 297 295
183 181 167 164 167 173 185 190 182 203 215 222 233 265 280 299 304 307 309 313 326 322 320 318 316 317 321 322 322 321 318 317 317 315 313 312 311 308 304 301 298 296 294 293 292 292 293 295 293
204 180 171 175 186 187 216 211 208 231 242 255 269 284 299 315 328 323 322 322 325 323 324 322 320 320 320 318 317 317 317 314 314 311 309 307 305 303 301 298 296 295 293 291 290 289 288 288 290
184 181 192 196 192 201 225 235 249 251 263 273 278 296 310 317 320 320 316 317 319 319 321 321 321 320 322 324 323 324 321 318 315 313 311 309 306 302 301 299 296 293 291 289 288 286 284 283 284
182 194 203 211 214 220 241 264 262 267 277 289 294 295 299 304 311 313 312 311 315 317 325 329 332 331 332 333 333 339 336 326 321 318 315 312 308 303 300 296 294 293 290 288 286 285 283 282 279
191 198 202 227 233 241 235 230 263 280 290 290 288 282 284 293 303 312 315 316 317 320 330 331 331 332 331 329 330 332 333 331 329 327 323 316 308 303 300 295 293 291 289 288 284 282 281 279 278
213 219 216 230 241 241 256 243 252 271 286 284 276 281 284 293 302 309 314 316 314 317 321 323 322 324 322 317 326 326 325 325 325 328 329 320 312 306 301 295 291 289 288 287 286 283 281 279 275
228 240 238 239 247 250 267 262 260 278 289 281 281 293 295 302 305 308 309 312 313 315 316 318 317 317 315 314 319 321 319 318 315 319 325 319 311 307 301 296 292 288 286 287 288 285 281 278 277
236 247 257 256 260 270 278 279 285 289 288 280 292 301 304 304 306 309 311 312 312 312 314 314 311 312 311 313 311 311 311 311 308 311 320 319 313 307 303 298 293 290 287 284 284 283 281 280 278
248 251 256 265 271 270 274 279 286 287 289 293 296 293 296 298 305 310 312 312 313 313 313 310 310 311 310 307 305 306 307 309 310 312 317 317 314 308 303 298 293 291 289 285 284 283 281 278 277
249 256 264 272 273 271 275 280 283 286 290 291 296 296 295 298 304 307 310 313 314 313 308 307 306 305 303 306 308 308 309 308 308 313 316 316 313 308 305 299 294 292 290 289 287 286 285 282 280
255 258 263 269 272 275 277 282 293 295 297 299 303 310 311 310 310 312 311 313 312 308 306 305 305 304 305 306 307 308 307 307 309 312 314 313 311 306 302 297 295 294 292 290 288 287 286 286 286
256 261 265 266 270 275 278 284 290 293 294 296 299 302 304 307 308 307 307 307 306 307 305 305 304 304 305 305 306 308 305 307 309 311 311 309 307 303 299 297 295 292 289 289 287 287 287 288 288
260 262 265 269 272 273 278 283 289 291 290 288 289 293 298 297 299 302 305 305 305 303 302 303 303 304 306 305 306 309 305 307 309 310 308 306 304 302 299 295 293 292 291 290 291 291 290 289 287
Height
5869 5873 5876 5880 5885 5885 5886 5885 5878 5881 5884 5885 5890 5890 5890 5889 5890 5893 5889 5887 5887 5887 5888 5886 5885 5885 5884 5883 5881 5880 5879 5878 5877 5876 5875 5875 5873 5872 5871 5870 5868 5866 5864 5862 5860 5858 5855 5853 5851
5877 5880 5884 5884 5885 5888 5890 5889 5885 5883 5884 5887 5891 5892 5892 5892 5890 5892 5889 5889 5888 5888 5889 5887 5887 5887 5886 5884 5884 5882 5881 5879 5878 5877 5876 5876 5875 5874 5872 5871 5869 5867 5865 5863 5862 5860 5858 5855 5853
5881 5885 5888 5889 5888 5890 5890 5892 5885 5886 5887 5891 5892 5894 5895 5893 5892 5893 5892 5891 5889 5890 5890 5889 5888 5887 5886 5885 5884 5883 5882 5880 5879 5877 5876 5875 5874 5873 5873 5872 5870 5868 5866 5864 5862 5861 5859 5858 5855
5882 5886 5890 5890 5890 5893 5892 5890 5887 5887 5888 5891 5893 5895 5896 5895 5895 5894 5893 5893 5891 5891 5891 5890 5889 5888 5887 5885 5884 5883 5881 5880 5879 5878 5877 5876 5875 5874 5872 5871 5869 5868 5867 5865 5863 5862 5860 5859 5857
5884 5888 5893 5892 5893 5889 5888 5886 5884 5885 5888 5891 5892 5894 5897 5896 5896 5894 5894 5893 5892 5892 5891 5890 5889 5889 5888 5887 5885 5884 5883 5881 5880 5879 5877 5876 5875 5873 5872 5871 5870 5868 5866 5864 5862 5860 5859 5859 5858
5882 5888 5891 5892 5890 5890 5888 5887 5885 5885 5886 5888 5890 5893 5897 5898 5898 5895 5894 5893 5893 5893 5893 5892 5891 5890 5889 5888 5887 5885 5883 5882 5880 5879 5877 5875 5874 5873 5871 5870 5869 5867 5865 5864 5862 5860 5858 5856 5856
5878 5886 5891 5891 5890 5889 5889 5886 5884 5881 5881 5884 5888 5892 5896 5897 5897 5895 5894 5893 5893 5893 5892 5891 5890 5890 5889 5888 5886 5884 5882 5881 5879 5877 5875 5874 5872 5870 5869 5868 5866 5864 5863 5862 5861 5860 5858 5856 5856
5884 5887 5891 5891 5889 5889 5886 5885 5883 5879 5879 5883 5888 5892 5894 5896 5896 5894 5894 5892 5891 5892 5891 5891 5890 5888 5888 5886 5885 5881 5881 5879 5877 5875 5872 5871 5869 5867 5865 5863 5861 5860 5859 5858 5857 5856 5855 5854 5853
5886 5886 5889 5891 5890 5890 5888 5887 5886 5884 5880 5884 5888 5892 5895 5897 5897 5895 5895 5894 5892 5892 5892 5890 5889 5888 5886 5884 5884 5880 5878 5877 5875 5873 5871 5870 5868 5866 5863 5861 5859 5857 5856 5855 5854 5852 5851 5849 5847
5888 5889 5889 5890 5890 5891 5890 5890 5888 5888 5886 5888 5891 5894 5896 5897 5896 5896 5896 5895 5894 5892 5891 5889 5887 5887 5884 5882 5881 5878 5875 5873 5872 5870 5868 5867 5865 5863 5860 5857 5856 5854 5852 5851 5850 5849 5847 5845 5843
5888 5889 5890 5891 5891 5889 5890 5889 5889 5889 5889 5890 5893 5894 5895 5895 5895 5895 5895 5894 5893 5892 5890 5888 5886 5884 5882 5881 5877 5875 5872 5870 5868 5865 5864 5863 5861 5860 5858 5855 5853 5851 5848 5846 5845 5844 5842 5840 5839
5886 5889 5890 5890 5890 5890 5890 5890 5891 5891 5891 5893 5895 5895 5895 5897 5896 5895 5894 5893 5892 5891 5888 5887 5885 5881 5881 5878 5876 5873 5870 5867 5865 5862 5860 5858 5856 5855 5853 5851 5850 5847 5846 5843 5840 5838 5836 5835 5834
5888 5888 5889 5889 5890 5889 5890 5888 5891 5892 5893 5894 5896 5897 5896 5897 5896 5895 5894 5893 5891 5889 5886 5885 5882 5881 5878 5876 5874 5871 5868 5865 5862 5860 5857 5855 5853 5851 5849 5847 5844 5842 5841 5838 5836 5834 5832 5829 5827
5892 5890 5890 5889 5890 5890 5889 5889 5891 5893 5895 5896 5896 5896 5897 5896 5896 5895 5893 5891 5889 5888 5886 5884 5882 5880 5878 5876 5873 5869 5866 5864 5861 5858 5855 5852 5849 5847 5845 5842 5840 5837 5834 5832 5830 5829 5827 5825 5820
5892 5891 5890 5890 5890 5890 5890 5892 5893 5895 5895 5896 5897 5896 5896 5897 5894 5893 5892 5891 5889 5887 5885 5883 5880 5878 5876 5873 5870 5867 5864 5861 5858 5855 5852 5848 5845 5843 5840 5837 5835 5833 5830 5827 5825 5823 5820 5816 5812
5891 5892 5892 5892 5891 5892 5893 5894 5893 5894 5895 5896 5896 5896 5896 5895 5894 5893 5892 5889 5888 5886 5883 5881 5878 5876 5873 5871 5868 5865 5862 5858 5855 5851 5848 5845 5842 5839 5836 5833 5830 5827 5824 5822 5819 5817 5814 5809 5805
5891 5892 5893 5893 5895 5895 5896 5895 5894 5895 5895 5896 5896 5895 5894 5894 5892 5891 5890 5888 5886 5883 5881 5879 5876 5874 5870 5868 5865 5861 5857 5855 5852 5848 5845 5840 5837 5834 5830 5827 5824 5821 5818 5815 5813 5811 5808 5803 5799
5889 5890 5892 5894 5896 5897 5897 5897 5896 5896 5896 5895 5895 5895 5894 5893 5892 5889 5888 5886 5883 5881 5880 5876 5873 5871 5868 5865 5861 5858 5854 5849 5846 5843 5840 5836 5833 5829 5825 5822 5818 5814 5811 5808 5805 5803 5802 5798 5792
5889 5890 5890 5891 5895 5895 5896 5896 5896 5896 5895 5895 5894 5894 5893 5892 5891 5888 5886 5884 5882 5878 5875 5872 5868 5865 5862 5858 5855 5851 5847 5843 5840 5836 5833 5830 5826 5822 5819 5815 5811 5808 5804 5801 5797 5795 5792 5790 5786
5885 5889 5889 5891 5893 5894 5894 5896 5896 5896 5895 5894 5893 5893 5891 5889 5888 5886 5883 5881 5879 5874 5870 5868 5865 5861 5859 5855 5851 5847 5844 5839 5835 5831 5825 5821 5817 5813 5810 5806 5803 5799 5795 5793 5790 5786 5784 5782 5780
5885 5887 5887 5889 5890 5892 5893 5893 5894 5894 5894 5893 5893 5891 5889 5887 5885 5883 5880 5876 5875 5872 5869 5864 5861 5856 5853 5849 5846 5842 5839 5835 5829 5825 5820 5815 5810 5804 5800 5796 5793 5790 5786 5783 5780 5777 5775 5772 5770
5883 5884 5886 5886 5888 5889 5891 5893 5890 5889 5890 5890 5890 5889 5887 5885 5882 5879 5875 5872 5869 5868 5864 5859 5855 5852 5847 5843 5839 5835 5832 5828 5823 5818 5813 5807 5801 5796 5791 5785 5780 5778 5775 5772 5769 5766 5763 5762 5759
5883 5882 5882 5883 5884 5887 5887 5888 5888 5888 5886 5885 5885 5885 5883 5881 5879 5875 5871 5867 5863 5861 5859 5856 5850 5846 5841 5835 5831 5826 5821 5817 5811 5806 5801 5794 5788 5784 5781 5777 5772 5767 5762 5759 5757 5755 5751 5749 5747
5878 5880 5880 5880 5881 5884 5880 5883 5887 5884 5883 5880 5880 5880 5878 5876 5874 5871 5868 5864 5859 5854 5851 5849 5845 5841 5836 5830 5825 5820 5815 5811 5804 5798 5793 5785 5778 5771 5765 5762 5759 5755 5753 5750 5746 5742 5739 5736 5734
5874 5877 5877 5877 5876 5879 5877 5877 5880 5878 5878 5878 5875 5872 5870 5868 5865 5863 5860 5858 5855 5850 5845 5841 5837 5832 5827 5823 5818 5813 5807 5802 5795 5788 5781 5773 5766 5760 5755 5749 5745 5742 5739 5736 5733 5730 5726 5724 5721
5870 5871 5872 5871 5872 5872 5870 5871 5874 5873 5871 5869 5868 5866 5864 5861 5857 5853 5850 5849 5847 5843 5839 5833 5826 5820 5816 5813 5808 5802 5796 5789 5783 5776 5770 5762 5754 5747 5742 5737 5733 5729 5725 5722 5719 5716 5714 5710 5707
5865 5867 5867 5866 5866 5865 5866 5865 5867 5867 5864 5863 5861 5860 5858 5855 5852 5849 5845 5840 5838 5835 5831 5825 5819 5813 5807 5801 5796 5791 5785 5779 5772 5765 5757 5749 5742 5735 5730 5725 5720 5716 5712 5708 5705 5701 5698 5694 5690
5860 5862 5862 5862 5860 5860 5861 5859 5860 5857 5852 5851 5851 5848 5844 5842 5840 5838 5835 5832 5829 5825 5821 5816 5811 5805 5799 5792 5786 5780 5775 5768 5761 5754 5746 5738 5730 5724 5718 5712 5707 5702 5698 5693 5689 5685 5681 5677 5673
5856 5857 5857 5856 5855 5854 5853 5856 5854 5852 5849 5843 5842 5841 5838 5834 5830 5828 5826 5823 5819 5815 5809 5805 5800 5793 5788 5783 5777 5771 5764 5757 5749 5741 5733 5724 5717 5711 5706 5700 5695 5690 5684 5679 5673 5668 5665 5662 5659
5850 5852 5852 5849 5850 5847 5845 5850 5847 5843 5840 5839 5835 5835 5834 5829 5824 5819 5817 5814 5809 5805 5799 5793 5788 5783 5777 5771 5764 5758 5750 5743 5736 5727 5718 5710 5704 5698 5693 5687 5681 5675 5669 5664 5659 5654 5650 5646 5641